Regional Weather Roundup
Issued by NWS

Home | Current Version | Previous Version | Graphics & Text | Print | Product List | Glossary On
Versions: 1 2 3 4 5 6 7 8 9 10 11 12 13 14 15 16 17 18 19 20 21 22 23 24 25 26 27 28 29 30 31 32 33 34 35 36 37 38 39 40 41 42 43 44 45 46 47 48 49 50
173
ASUS43 KLMK 011102
RWRKY
KENTUCKY REGIONAL WEATHER ROUNDUP
NATIONAL WEATHER SERVICE LOUISVILLE KY
700 AM EDT SUN MAY 01 2016

NOTE "FAIR" INDICATES FEW OR NO CLOUDS BELOW 12,000 FEET
WITH NO SIGNIFICANT WEATHER AND/OR OBSTRUCTIONS TO VISIBILITY.

KYZ001>023-026-027-061>063-070>075-011200-
WESTERN AND SOUTH CENTRAL KENTUCKY

CITY           SKY/WX    TMP DP  RH WIND       PRES   REMARKS
PADUCAH        CLOUDY    64  59  83 E7        29.88F
HENDERSON      PTCLDY    57  52  82 CALM      29.88F
OWENSBORO      CLOUDY    60  59  97 CALM      29.90R
HOPKINSVILLE   FOG       62  62 100 CALM      29.91R VSB 3/4
BOWLING GREEN  FOG       63  62  97 CALM      29.92R VSB 1/2
GLASGOW        NOT AVBL
$$

KYZ024-025-028>034-038-045-046-053-011200-
NORTH CENTRAL KENTUCKY

CITY           SKY/WX    TMP DP  RH WIND       PRES   REMARKS
LOUISVILLE/SDF MOCLDY    64  62  93 SE5       29.90S FOG
LOUISVILLE/LOU MOCLDY    63  62  97 SE3       29.91S FOG
FORT KNOX      FOG       62  62 100 SW1       29.90R VSB 3/4
$$

KYZ035>037-039>044-047>052-055>060-089>105-011200-
NORTHEAST KENTUCKY

CITY           SKY/WX    TMP DP  RH WIND       PRES   REMARKS
LEXINGTON      CLOUDY    63  61  93 S7        29.94R
COVINGTON      LGT RAIN  62  61  96 S7        29.91S
FRANKFORT      CLOUDY    64  61  90 S3        29.91R
$$

KYZ054-064>069-076>088-106>120-011200-
SOUTHEAST KENTUCKY

CITY           SKY/WX    TMP DP  RH WIND       PRES   REMARKS
JACKSON        FOG       60  59  96 S3        29.96S VSB 3/4
LONDON         CLOUDY    61  60  97 N3        29.97R
SOMERSET       NOT AVBL
MIDDLESBORO    NOT AVBL
MONTICELLO     PTSUNNY   61  60  97 NW8       29.97R
$$





USA.gov is the U.S. government's official web portal to all federal, state and local government web resources and services.